Home   Weather   Saint John   Past weeks

Flag for Canada Past Weather in Saint John, New Brunswick, Canada — Yesterday and Last 2 Weeks

Now
37 °F

Fog.


Feels Like: 37 °F
Forecast: 35 / 44 °F
Wind: 2 mph from North

Location: Saint John

Current Time: Feb 25, 2017 at 5:25:21 am

Latest Report: Feb 25, 2017 at 4:00 am


Visibility: 0 mi

Pressure: 29.95 "Hg

Humidity: 100%

Dew Point: 37 °F

Location of Saint JohnLocation

Past Weather in Saint John — Graph

°F

Saint John Temperature Yesterday

Maximum temperature yesterday: 50 °F (at 11:00 am)
Minimum temperature yesterday: 34 °F (at 5:25 am)
Average temperature yesterday: 41 °F

High & Low Weather Summary for the Past Weeks

 TemperatureHumidityPressure
High50 °F (Feb 24, 11:00 am)100% (Feb 13, 4:00 am)30.36 "Hg (Feb 13, 4:00 am)
Low-13 °F (Feb 11, 8:00 am)35% (Feb 21, 3:00 pm)28.96 "Hg (Feb 16, 10:26 am)
Average25 °F83%29.76 "Hg
* Reported Feb 10 4:06 am — Feb 25 4:00 am, Saint John, Weather by CustomWeather, © 2017

Note: Actual official high and low records may vary slightly from our data, if they occured in-between our weather recording intervals... More about our weather records

Advertising

Saint John Weather History for the Previous 24 Hours

Scroll right to see more
 ConditionsComfort  
Time TempWeatherWind HumidityBarometerVisibility
4:00 am
Sat, Feb 25
37 °FFog.2 mph100%29.95 "Hg0 mi
3:00 am37 °FFog.2 mph100%29.94 "Hg1 mi
2:00 am39 °FFog.2 mph100%29.93 "Hg0 mi
1:00 am39 °FFog.2 mph100%29.93 "Hg0 mi
12:00 am37 °FFog.3 mph100%29.92 "Hg0 mi
11:35 pm
Fri, Feb 24
39 °FFog.2 mph100%29.91 "Hg0 mi
11:04 pm39 °FFog.2 mph100%29.93 "Hg0 mi
10:21 pm39 °FFog.5 mph100%29.93 "Hg1 mi
10:00 pm39 °FSprinkles. Fog.6 mph100%29.93 "Hg1 mi
9:12 pm41 °FSprinkles. Fog.6 mph100%29.92 "Hg1 mi
9:00 pm39 °FSprinkles. Fog.6 mph100%29.92 "Hg1 mi
8:00 pm39 °FFog.8 mph100%29.91 "Hg0 mi
7:26 pm41 °FFog.9 mph100%29.90 "Hg1 mi
7:15 pm41 °FFog.10 mph100%29.91 "Hg1 mi
7:00 pm41 °FFog.6 mph100%29.91 "Hg5 mi
6:46 pm39 °FMostly cloudy.5 mph100%29.91 "Hg15 mi
6:00 pm39 °FLight rain. Broken clouds.7 mph100%29.91 "Hg10 mi
5:15 pm43 °FLight rain. Cloudy.7 mph87%29.91 "Hg15 mi
5:00 pm45 °FCloudy.9 mph76%29.92 "Hg15 mi
4:39 pm43 °FLight rain. Partly sunny.9 mph81%29.91 "Hg15 mi
4:00 pm45 °FPartly sunny.10 mph76%29.92 "Hg15 mi
3:00 pm46 °FPartly sunny.13 mph76%29.92 "Hg15 mi
2:00 pm48 °FPartly sunny.12 mph71%29.93 "Hg15 mi
1:00 pm48 °FPartly sunny.9 mph76%29.93 "Hg15 mi
12:00 pm46 °FPartly sunny.8 mph82%29.95 "Hg15 mi
11:00 am50 °FPartly sunny.3 mph67%29.94 "Hg15 mi
10:00 am46 °FPartly sunny.8 mph82%29.93 "Hg15 mi
9:00 am41 °FPartly sunny.2 mph100%29.92 "Hg15 mi
8:19 am41 °FLow clouds.2 mph100%29.89 "Hg15 mi
8:00 am36 °FPartly sunny.No wind100%29.90 "Hg15 mi
7:12 am39 °FPartly sunny.6 mph100%29.87 "Hg15 mi
7:00 am43 °FPassing clouds.9 mph93%29.86 "Hg15 mi
6:00 am41 °FFog.9 mph100%29.84 "Hg5 mi
5:42 am34 °FFog.No wind100%29.84 "Hg4 mi
5:25 am34 °FFog.No wind100%29.83 "Hg1 mi
5:19 am36 °FFog.No wind100%29.83 "Hg1 mi
5:00 am36 °FFog.7 mph100%29.83 "Hg1 mi
Weather by CustomWeather, © 2017

See weather overviewHow to use our weather pages